Location: La Sioule Rivi�re
(46.3664°N, 3.3197°E)
Time: 11:49:44
(UTC+00:00)

CZ-4C R/B - Pass Details

Date: 29 October 2020
Orbit: 624 x 1378 km, 63.4° (Epoch: 23 November)

Event Time Altitude Azimuth Distance (km) Brightness Sun altitude
Rises 20:27:51 0° 320° (NW) 3,825 6.3 -39.9°
Reaches altitude 10° 20:30:19 10° 319° (NW) 2,968 5.6 -40.3°
Enters shadow 20:34:49 44° 313° (NW) 1,606 3.8 -41.0°
